Location: Clarks Summit,Pa.
(41.5000°N, 75.6000°W)
Time: 22:18:58
(UTC-04:00)

OTV 5 (USA 277) - Visible Passes

Search period start: 21 May 2018 00:00
Search period end: 31 May 2018 00:00
Orbit: 308 x 326 km, 54.5° (Epoch: 06 May)

Date Brightness Start Highest point End Pass type
(mag) Time Alt. Az. Time Alt. Az. Time Alt. Az.
28 May ? 04:41:22 10° S 04:43:27 19° SE 04:45:33 10° E visible
29 May ? 04:55:01 10° SW 04:57:42 57° SE 05:00:26 10° ENE visible
30 May ? 03:37:50 12° SE 03:38:08 12° SE 03:39:14 10° ESE visible
